Location: El Frío
(10.0713°N, 67.9111°W)
Time: 03:27:45
(UTC+00:00)

Cosmos 2058 Rocket - Pass Details

Date: 11 December 2025
Orbit: 603 x 633 km, 82.5° (Epoch: 15 January)

Event Time Altitude Azimuth Distance (km) Brightness Sun altitude
Rises 22:24:14 0° 183° (S) 2,898 6.9 -3.7°
Reaches altitude 10° 22:26:28 10° 182° (S) 1,996 6.0 -4.2°
Maximum altitude 22:30:54 85° 93° (E) 634 3.1 -5.2°
Drops below altitude 10° 22:35:21 10° 5° (N) 2,006 5.4 -6.2°
Sets 22:37:35 0° 5° (N) 2,915 6.2 -6.7°
